User: anonymous   Login
Location: Newark
(16.3678°N, 77.8722°E)
Time: 13:05:23
(UTC+00:00)
Language:

Altair - Orbit

View from above orbital plane
View from above orbital plane
View from above satellite
View from above satellite

Ground track
Ground track

The orbit data is extracted from the following two-line orbital elements,

1    50U 60009B   19350.10446074 -.00000096  00000-0 -91667-4 0  9994
2    50  47.2329 333.4257 0112949 136.4938 224.4828 12.20108524648172
Epoch (UTC): 16 December 2019 02:30:25
Eccentricity: 0.0112949
inclination: 47.2329°
perigee height: 1502 km
apogee height: 1682 km
right ascension of ascending node: 333.4257°
argument of perigee: 136.4938°
revolutions per day: 12.20108524
mean anomaly at epoch: 224.4828°
orbit number at epoch: 64817

The dashed part of the orbit path shows where the satellite is in the earth's shadow,  

DLR